Miscellaneous Local Product
Issued by NWS Hastings, NE

Home | Current Version | Previous Version | Text Only | Print | Product List | Glossary Off
Versions: 1 2 3 4 5 6 7 8 9 10 11 12 13 14 15 16 17 18 19 20 21 22 23 24 25 26 27 28 29 30 31 32 33 34 35 36 37 38 39 40 41 42 43 44 45 46 47 48 49 50

000
AXUS43 KGID 222302
MISGRI

GID CWA HOURLY WEATHER ROUNDUP
NATIONAL WEATHER SERVICE HASTINGS NE
600 PM CDT THU JUN 22 2017

NOTE: "FAIR" INDICATES FEW OR NO CLOUDS BELOW 12,000 FEET WITH NO
SIGNIFICANT WEATHER AND/OR OBSTRUCTIONS TO VISIBILITY.

...SOUTH CENTRAL NEBRASKA...

CITY           SKY/WX    TMP DP  RH WIND       PRES   REMARKS
GRAND ISLAND   MOSUNNY   85  67  54 N23G31    29.69R
HASTINGS       MOSUNNY   89  65  44 N16       29.68R HX  91
KEARNEY        SUNNY     88  63  42 N24G32    29.71S
ORD            CLOUDY    80  58  46 N18       29.76R
YORK           PTSUNNY   90  64  43 N3        29.64F HX  91
AURORA         MOSUNNY   88  65  47 N22G28    29.66R HX  90
LEXINGTON      MOSUNNY   83  61  46 N17G24    29.76R
HOLDREGE       SUNNY     84  63  49 N22G29    29.72R
HEBRON         MOSUNNY   96  64  34 N7        29.60S HX  97

...NEBRASKA PANHANDLE...

CITY           SKY/WX    TMP DP  RH WIND       PRES   REMARKS
CHADRON        SUNNY     78  42  27 NE10      29.91F
ALLIANCE       MOSUNNY   79  51  37 NE17      29.90F
SCOTTSBLUFF    MOSUNNY   80  53  39 NE13G20   29.90R
SIDNEY         PTSUNNY   78  54  43 NE14      29.93R

...WESTERN AND NORTH CENTRAL NEBRASKA...

CITY           SKY/WX    TMP DP  RH WIND       PRES   REMARKS
VALENTINE      MOSUNNY   79  45  29 N12       29.87S
AINSWORTH      PTSUNNY   71  51  48 NE12      29.87F
ONEILL         MOSUNNY   73  60  64 N16       29.82R
BROKEN BOW     PTSUNNY   81  59  47 N17G25    29.79R
IMPERIAL       SUNNY     85  53  33 NE17G26   29.82R
NORTH PLATTE   MOSUNNY   81  58  45 NE17G25   29.81R
MCCOOK         SUNNY     87  62  43 NE22G28   29.73S

...EASTERN NEBRASKA...

CITY           SKY/WX    TMP DP  RH WIND       PRES   REMARKS
NORFOLK        CLOUDY    81  61  50 N17G25    29.70R
SO SIOUX CITY  CLOUDY    82  62  50 N15       29.67S
TEKAMAH        CLOUDY    89  65  44 N15       29.63S HX  91
COLUMBUS       CLOUDY    83  66  56 N18G25    29.66R
ALBION         CLOUDY    84  55  37 N20G28    29.72R
OMAHA EPPLEY   CLOUDY    91  67  44 SW7       29.61F HX  94
OFFUTT AFB     MOSUNNY   89  69  51 W5        29.61F HX  93
MILLARD        CLOUDY    90  71  52 W3        29.62S HX  96
LINCOLN        CLOUDY    89  69  51 N9        29.61F HX  93
NEBRASKA CITY  PTSUNNY   88  71  57 S8        29.63F HX  94
BEATRICE       PTSUNNY   90  71  52 SE9       29.60F HX  96
FALLS CITY     MOSUNNY   87  67  51 S8        29.62R HX  90

...NORTHERN KANSAS...

CITY           SKY/WX    TMP DP  RH WIND       PRES   REMARKS
GOODLAND       CLOUDY    85  59  41 N18       29.80R
HILL CITY      SUNNY     98  60  28 N17       29.64R HX  98
NORTON         CLEAR     91  54  27 N18G24    29.68R
PHILLIPSBURG   SUNNY     97  59  28 N17       29.63S HX  96
SMITH CENTER   CLOUDY    93  61  33 N13G20    29.62S HX  93
HAYS           SUNNY     99  62  29 E5        29.59F HX 100
RUSSELL        SUNNY    100  59  25 S9        29.58F HX 100
CONCORDIA      SUNNY     96  64  34 S10       29.59F HX  98
SALINA         SUNNY     99  62  29 S17       29.59S HX 100
TOPEKA         SUNNY     88  72  58 SE14G22   29.62F HX  94



USA.gov is the U.S. government's official web portal to all federal, state and local government web resources and services.